Location: Casone le Fosse
(44.6547°N, 12.1103°E)
Time: 04:39:57
(UTC+00:00)

SAR-Lupe-4 - Pass Details

Date: 29 October 2020
Orbit: 481 x 484 km, 98.2° (Epoch: 25 November)

Event Time Altitude Azimuth Distance (km) Brightness Sun altitude
Rises 17:04:21 0° 15° (NNE) 2,554 7.0 -11.2°
Reaches altitude 10° 17:06:25 10° 17° (NNE) 1,669 6.0 -11.6°
Maximum altitude 17:10:00 75° 103° (ESE) 505 3.4 -12.2°
Drops below altitude 10° 17:13:33 10° 189° (S) 1,655 6.5 -12.9°
Sets 17:15:36 0° 191° (S) 2,530 7.4 -13.2°
